Stündliche Wetter Abaeté

Heute, 23 Juni, Mittwoch

Zeit Temperatur Niederschläge Wind Luftdruck Luftfeuchtigkeit
00:00 +20°C° 0 mm 2 m/S 709 mmHg 67%
01:00 +19°C° 0 mm 2 m/S 709 mmHg 70%
02:00 +19°C° 0 mm 2 m/S 709 mmHg 72%
03:00 +18°C° 0 mm 2 m/S 709 mmHg 74%
04:00 +18°C° 0 mm 2 m/S 709 mmHg 77%
05:00 +17°C° 0 mm 2 m/S 709 mmHg 79%
06:00 +17°C° 0 mm 2 m/S 709 mmHg 82%
07:00 +19°C° 0 mm 2 m/S 710 mmHg 74%
08:00 +20°C° 0 mm 2 m/S 710 mmHg 67%
09:00 +23°C° 0 mm 2 m/S 711 mmHg 59%
10:00 +25°C° 0 mm 2 m/S 711 mmHg 53%
11:00 +27°C° 0 mm 2 m/S 711 mmHg 47%
12:00 +29°C° 0 mm 2 m/S 710 mmHg 41%
13:00 +29°C° 0 mm 2 m/S 710 mmHg 38%
14:00 +30°C° 0 mm 2 m/S 709 mmHg 35%
15:00 +30°C° 0 mm 1 m/S 708 mmHg 32%
16:00 +29°C° 0 mm 1 m/S 708 mmHg 34%
17:00 +27°C° 0 mm 1 m/S 708 mmHg 37%
18:00 +26°C° 0 mm 2 m/S 708 mmHg 39%
19:00 +25°C° 0 mm 2 m/S 708 mmHg 42%
20:00 +24°C° 0 mm 2 m/S 709 mmHg 45%
21:00 +24°C° 0 mm 3 m/S 709 mmHg 49%
22:00 +22°C° 0 mm 3 m/S 709 mmHg 52%
23:00 +21°C° 0 mm 3 m/S 709 mmHg 56%

Morgen, 24 Juni, Donnerstag

Zeit Temperatur Niederschläge Wind Luftdruck Luftfeuchtigkeit
00:00 +20°C° 0 mm 3 m/S 709 mmHg 59%
01:00 +19°C° 0 mm 2 m/S 709 mmHg 63%
02:00 +18°C° 0 mm 2 m/S 709 mmHg 67%
03:00 +17°C° 0 mm 2 m/S 709 mmHg 71%
04:00 +16°C° 0 mm 2 m/S 709 mmHg 73%
05:00 +16°C° 0 mm 1 m/S 709 mmHg 76%
06:00 +15°C° 0 mm 1 m/S 709 mmHg 79%
07:00 +18°C° 0 mm 1 m/S 709 mmHg 72%
08:00 +19°C° 0 mm 2 m/S 710 mmHg 64%
09:00 +21°C° 0 mm 2 m/S 710 mmHg 56%
10:00 +24°C° 0 mm 2 m/S 710 mmHg 51%
11:00 +26°C° 0 mm 2 m/S 710 mmHg 45%
12:00 +28°C° 0 mm 2 m/S 710 mmHg 40%
13:00 +29°C° 0 mm 2 m/S 709 mmHg 37%
14:00 +30°C° 0 mm 1 m/S 708 mmHg 35%
15:00 +30°C° 0 mm 1 m/S 708 mmHg 32%
16:00 +28°C° 0 mm 1 m/S 708 mmHg 37%
17:00 +26°C° 0 mm 1 m/S 708 mmHg 42%
18:00 +24°C° 0 mm 1 m/S 708 mmHg 46%
19:00 +23°C° 0 mm 1 m/S 708 mmHg 49%
20:00 +22°C° 0 mm 1 m/S 708 mmHg 51%
21:00 +21°C° 0 mm 1 m/S 709 mmHg 54%
22:00 +21°C° 0 mm 1 m/S 708 mmHg 56%
23:00 +20°C° 0 mm 1 m/S 708 mmHg 58%

übermorgen, 25 Juni, Freitag

Zeit Temperatur Niederschläge Wind Luftdruck Luftfeuchtigkeit
00:00 +19°C° 0 mm 1 m/S 708 mmHg 60%
01:00 +19°C° 0 mm 1 m/S 708 mmHg 62%
02:00 +16°C° 0 mm 0 m/S 708 mmHg 65%
03:00 +16°C° 0 mm 0 m/S 707 mmHg 67%
04:00 +15°C° 0 mm 0 m/S 708 mmHg 69%
05:00 +15°C° 0 mm 0 m/S 708 mmHg 72%
06:00 +14°C° 0 mm 0 m/S 708 mmHg 74%
07:00 +17°C° 0 mm 0 m/S 709 mmHg 66%
08:00 +21°C° 0 mm 1 m/S 710 mmHg 58%
09:00 +23°C° 0 mm 1 m/S 710 mmHg 50%
10:00 +26°C° 0 mm 1 m/S 710 mmHg 44%
11:00 +28°C° 0 mm 1 m/S 710 mmHg 38%
12:00 +30°C° 0 mm 1 m/S 710 mmHg 32%
13:00 +31°C° 0 mm 1 m/S 709 mmHg 30%
14:00 +31°C° 0 mm 2 m/S 708 mmHg 28%
15:00 +31°C° 0 mm 2 m/S 708 mmHg 27%
16:00 +29°C° 0 mm 2 m/S 708 mmHg 31%
17:00 +27°C° 0 mm 1 m/S 707 mmHg 36%
18:00 +25°C° 0 mm 1 m/S 707 mmHg 41%
19:00 +24°C° 0 mm 1 m/S 708 mmHg 43%
20:00 +23°C° 0 mm 1 m/S 708 mmHg 45%
21:00 +22°C° 0 mm 1 m/S 708 mmHg 48%
22:00 +21°C° 0 mm 1 m/S 708 mmHg 51%
23:00 +20°C° 0 mm 1 m/S 708 mmHg 54%

26 Juni, Samstag

Zeit Temperatur Niederschläge Wind Luftdruck Luftfeuchtigkeit
00:00 +19°C° 0 mm 1 m/S 708 mmHg 58%
01:00 +16°C° 0 mm 0 m/S 708 mmHg 61%
02:00 +16°C° 0 mm 0 m/S 708 mmHg 64%
03:00 +15°C° 0 mm 0 m/S 708 mmHg 67%
04:00 +15°C° 0 mm 0 m/S 708 mmHg 70%
05:00 +14°C° 0 mm 0 m/S 708 mmHg 73%
06:00 +14°C° 0 mm 0 m/S 708 mmHg 76%
07:00 +18°C° 0 mm 1 m/S 709 mmHg 68%
08:00 +20°C° 0 mm 1 m/S 710 mmHg 60%
09:00 +21°C° 0 mm 2 m/S 710 mmHg 52%
10:00 +24°C° 0 mm 2 m/S 710 mmHg 45%
11:00 +26°C° 0 mm 2 m/S 710 mmHg 38%
12:00 +28°C° 0 mm 3 m/S 710 mmHg 31%
13:00 +29°C° 0 mm 3 m/S 709 mmHg 27%
14:00 +29°C° 0 mm 3 m/S 709 mmHg 24%
15:00 +30°C° 0 mm 3 m/S 708 mmHg 20%
16:00 +28°C° 0 mm 3 m/S 708 mmHg 24%
17:00 +25°C° 0 mm 2 m/S 708 mmHg 27%
18:00 +23°C° 0 mm 2 m/S 707 mmHg 31%
19:00 +21°C° 0 mm 2 m/S 708 mmHg 36%
20:00 +19°C° 0 mm 2 m/S 708 mmHg 40%
21:00 +18°C° 0 mm 2 m/S 709 mmHg 45%
22:00 +17°C° 0 mm 2 m/S 709 mmHg 50%
23:00 +16°C° 0 mm 1 m/S 709 mmHg 56%

27 Juni, Sonntag

Zeit Temperatur Niederschläge Wind Luftdruck Luftfeuchtigkeit
00:00 +14°C° 0 mm 0 m/S 708 mmHg 61%
01:00 +14°C° 0 mm 0 m/S 708 mmHg 65%
02:00 +13°C° 0 mm 0 m/S 708 mmHg 69%
03:00 +13°C° 0 mm 0 m/S 708 mmHg 72%
04:00 +12°C° 0 mm 0 m/S 708 mmHg 75%
05:00 +12°C° 0 mm 0 m/S 708 mmHg 78%
06:00 +13°C° 0 mm 1 m/S 709 mmHg 81%
07:00 +15°C° 0 mm 1 m/S 709 mmHg 73%
08:00 +18°C° 0 mm 1 m/S 710 mmHg 65%
09:00 +20°C° 0 mm 1 m/S 711 mmHg 57%
10:00 +22°C° 0 mm 1 m/S 711 mmHg 49%
11:00 +25°C° 0 mm 1 m/S 711 mmHg 41%
12:00 +27°C° 0 mm 1 m/S 710 mmHg 34%
13:00 +28°C° 0 mm 1 m/S 710 mmHg 31%
14:00 +28°C° 0 mm 1 m/S 709 mmHg 28%
15:00 +29°C° 0 mm 1 m/S 708 mmHg 26%
16:00 +27°C° 0 mm 1 m/S 708 mmHg 30%
17:00 +24°C° 0 mm 1 m/S 708 mmHg 34%
18:00 +22°C° 0 mm 1 m/S 708 mmHg 39%
19:00 +19°C° 0 mm 0 m/S 708 mmHg 40%
20:00 +18°C° 0 mm 0 m/S 708 mmHg 42%
21:00 +17°C° 0 mm 0 m/S 709 mmHg 44%
22:00 +17°C° 0 mm 0 m/S 709 mmHg 46%
23:00 +18°C° 0 mm 1 m/S 709 mmHg 47%

28 Juni, Montag

Zeit Temperatur Niederschläge Wind Luftdruck Luftfeuchtigkeit
00:00 +16°C° 0 mm 1 m/S 709 mmHg 49%
01:00 +16°C° 0 mm 1 m/S 709 mmHg 50%
02:00 +14°C° 0 mm 0 m/S 709 mmHg 52%
03:00 +14°C° 0 mm 0 m/S 709 mmHg 54%
04:00 +13°C° 0 mm 0 m/S 709 mmHg 55%
05:00 +14°C° 0 mm 1 m/S 709 mmHg 56%
06:00 +13°C° 0 mm 1 m/S 709 mmHg 58%
07:00 +16°C° 0 mm 1 m/S 710 mmHg 51%
08:00 +19°C° 0 mm 1 m/S 711 mmHg 45%
09:00 +22°C° 0 mm 1 m/S 712 mmHg 38%
10:00 +24°C° 0 mm 1 m/S 712 mmHg 34%
11:00 +26°C° 0 mm 1 m/S 712 mmHg 29%
12:00 +29°C° 0 mm 2 m/S 711 mmHg 24%
13:00 +29°C° 0 mm 2 m/S 711 mmHg 22%
14:00 +30°C° 0 mm 2 m/S 711 mmHg 20%
15:00 +31°C° 0 mm 2 m/S 710 mmHg 18%
16:00 +28°C° 0 mm 2 m/S 710 mmHg 22%
17:00 +26°C° 0 mm 2 m/S 710 mmHg 26%
18:00 +23°C° 0 mm 2 m/S 710 mmHg 30%
19:00 +21°C° 0 mm 2 m/S 710 mmHg 33%
20:00 +20°C° 0 mm 3 m/S 711 mmHg 37%
21:00 +19°C° 0 mm 3 m/S 712 mmHg 40%
22:00 +18°C° 0 mm 3 m/S 712 mmHg 47%
23:00 +17°C° 0 mm 2 m/S 712 mmHg 54%
Mehr zeigen

Wir brauchen deine Erlaubnis

Meteoprog und unser Service Anbieter werden persönliche Daten aufbewahren, so wie Cookies, Geräte Bezeichnung oder ähnliche Technologien von deinem Gerät und Prozess, so wie Persönliche Daten Inhalte und Werbungen, genauso wie social Media und den Verkehr zu analysieren.

  • Aufbewahrung und/oder Zugang zu deiner Geräte Informationen.

    Cookies, Geräte Bezeichnung oder andere Informationen, können aufbewahrt oder Zugang zu deinem Gerät erhalten, für den Grund, der oben angegeben wird.

  • Personalisierte Werbung und Inhalte, Messungen, Einblick in das Publikum und Produkt Entwicklung.

    Werbungen und Inhalte können personalisiert werden, basierend auf ein Profil. Mehr Daten können besser personalisierte Werbungen und Inhalte hinzufügen. Werbung und Inhalte können gezeigt und gemessen werden. Einblicke über das Publikum, welche die Werbung gesehen haben und den Inhalt, können abgeleitet werden. So wie Daten können genutzt werden, um es zu verbessern oder die Benutzer Erfahrung zu verbessern das System und die Software.

Wenn du “Ich stimme zu” klickst, erlaubst du uns, die Cookies zu benutzen die Geräte Bezeichnung, den Web oder ähnliche Technologien zu benutzen. Deine Settings, können in deinem Gerät bei deinem Browser geändert werden.

Für den bestimmten Zweck, berechtigten Interessen beruhen darauf, mehr als auf den Inhalt. Du kannst mehr darüber in unseren Privaten und Cookie Politik lesen.